Location: Unspecified
(0.0000°N, 0.0000°E)
Time: 06:34:29
(UTC+00:00)

Vanguard 1 - Pass Details

Date: 20 November 2019
Orbit: 652 x 3832 km, 34.3° (Epoch: 10 December)

Event Time Altitude Azimuth Distance (km) Brightness Sun altitude
Rises 05:11:20 0° 229° (SW) 7,905 14.4 -8.0°
Reaches altitude 10° 05:16:48 10° 226° (SW) 6,938 14.1 -6.8°
Maximum altitude 05:40:10 71° 144° (SE) 3,348 13.0 -1.3°
Drops below altitude 10° 05:55:10 10° 63° (ENE) 4,773 14.3 2.3°
Sets 05:58:07 0° 61° (ENE) 5,440 14.5 3.0°
